TimePST,TemperatureF,Dew PointF,Humidity,Sea Level PressureIn,VisibilityMPH,Wind Direction,Wind SpeedMPH,Gust SpeedMPH,PrecipitationIn,Events,Conditions,WindDirDegrees,DateUTC
12:56 AM,34.0,28.0,79,30.26,10.0,Calm,Calm,-,N/A,,Clear,0,2014-01-16 08:56:00
1:56 AM,30.9,26.1,82,30.26,10.0,Calm,Calm,-,N/A,,Clear,0,2014-01-16 09:56:00
2:56 AM,32.0,27.0,82,30.26,10.0,North,5.8,-,N/A,,Clear,360,2014-01-16 10:56:00
3:56 AM,28.9,25.0,85,30.25,10.0,Calm,Calm,-,N/A,,Clear,0,2014-01-16 11:56:00
4:56 AM,28.0,24.1,85,30.25,10.0,Calm,Calm,-,N/A,,Clear,0,2014-01-16 12:56:00
5:56 AM,28.9,24.1,82,30.26,10.0,Calm,Calm,-,N/A,,Clear,0,2014-01-16 13:56:00
6:56 AM,26.1,23.0,88,30.27,10.0,ESE,3.5,-,N/A,,Clear,110,2014-01-16 14:56:00
7:56 AM,27.0,23.0,85,30.28,10.0,Variable,3.5,-,N/A,,Clear,0,2014-01-16 15:56:00
8:56 AM,35.1,27.0,72,30.29,10.0,NW,4.6,-,N/A,,Clear,310,2014-01-16 16:56:00
9:56 AM,43.0,27.0,53,30.28,10.0,Calm,Calm,-,N/A,,Clear,0,2014-01-16 17:56:00
10:56 AM,53.1,26.1,35,30.26,10.0,Calm,Calm,-,N/A,,Clear,0,2014-01-16 18:56:00
11:56 AM,59.0,24.1,26,30.22,10.0,Calm,Calm,-,N/A,,Clear,0,2014-01-16 19:56:00
12:56 PM,66.0,23.0,20,30.17,10.0,Calm,Calm,-,N/A,,Clear,0,2014-01-16 20:56:00
1:56 PM,72.0,19.0,13,30.14,10.0,Calm,Calm,-,N/A,,Clear,0,2014-01-16 21:56:00
2:56 PM,75.0,19.0,12,30.12,10.0,Calm,Calm,-,N/A,,Clear,0,2014-01-16 22:56:00
3:56 PM,70.0,23.0,17,30.13,10.0,West,6.9,-,N/A,,Clear,280,2014-01-16 23:56:00
4:56 PM,62.1,23.0,22,30.13,10.0,West,5.8,-,N/A,,Clear,280,2014-01-17 00:56:00
5:56 PM,55.9,25.0,30,30.15,10.0,Calm,Calm,-,N/A,,Clear,0,2014-01-17 01:56:00
6:56 PM,50.0,26.1,39,30.16,10.0,Calm,Calm,-,N/A,,Clear,0,2014-01-17 02:56:00
7:56 PM,46.0,26.1,46,30.17,9.0,Calm,Calm,-,N/A,,Clear,0,2014-01-17 03:56:00
8:56 PM,44.1,27.0,51,30.17,10.0,Calm,Calm,-,N/A,,Clear,0,2014-01-17 04:56:00
9:56 PM,39.0,27.0,62,30.17,10.0,Calm,Calm,-,N/A,,Clear,0,2014-01-17 05:56:00
10:56 PM,39.0,27.0,62,30.18,10.0,Calm,Calm,-,N/A,,Clear,0,2014-01-17 06:56:00
11:56 PM,34.0,26.1,73,30.18,10.0,Calm,Calm,-,N/A,,Clear,0,2014-01-17 07:56:00